Regional Weather Roundup
Issued by NWS Glasgow, MT

Home | Current Version | Previous Version | Text Only | Print | Product List | Glossary On
Versions: 1 2 3 4 5 6 7 8 9 10 11 12 13 14 15 16 17 18 19 20 21 22 23 24 25 26 27
000
ASUS45 KGGW 292115
RWRGGW
HOURLY REGIONAL WEATHER ROUNDUP FOR NORTHEAST MONTANA
NATIONAL WEATHER SERVICE GLASGOW MONTANA
300 PM MDT SUN MAY 29 2016

NOTE: "FAIR" INDICATES FEW OR NO CLOUDS BELOW 12,000 FEET WITH NO
SIGNIFICANT WEATHER AND/OR OBSTRUCTIONS TO VISISBILITY.

NORTHEAST MONTANA


CITY           SKY/WX    TMP DP  RH WIND       PRES   REMARKS
GLASGOW        SUNNY     72  36  26 W8G18     29.94F
PLENTYWOOD       N/A     71  33  24 W14G24      N/A
WOLF POINT     SUNNY     76  37  24 W10G20    29.95F
JORDAN           N/A     75  35  23 W13G21    29.96F
WINNETT          N/A     72  32  23 NW3G13      N/A
SIDNEY         SUNNY     77  37  23 W10G18    29.95S
GLENDIVE       MOSUNNY   75  43  31 S10G17    29.99F
MALTA            N/A     76  41  28 SW9G18      N/A
SCOBEY           N/A     70  37  29 W14G23    29.95S
OPHEIM           N/A     64  34  32 W9        29.80S

FORT PECK REPORTS


CITY           SKY/WX    TMP DP  RH WIND       PRES   REMARKS
FORT PECK        N/A     73  43  33 S5          N/A
THE PINES        N/A     75  32  20 S8G17       N/A

SOUTHEAST MONTANA


CITY           SKY/WX    TMP DP  RH WIND       PRES   REMARKS
BILLINGS       MOSUNNY   75  38  26 VRB3      29.98F
MILES CITY     SUNNY     78  41  26 SW9       29.97F
BAKER          MOSUNNY   76  36  23 W8        30.00F
LIVINGSTON     SUNNY     72  38  29 NW9       30.00F

CENTRAL MONTANA


CITY           SKY/WX    TMP DP  RH WIND       PRES   REMARKS
HAVRE          MOSUNNY   72  39  30 W15       29.92F
LEWISTOWN      CLOUDY    70  34  26 NW5       30.00F
GREAT FALLS    MOSUNNY   70  32  24 W14G23    29.95F
CUT BANK         N/A     67  34  29 SW22G31   29.94F
HELENA         MOSUNNY   70  34  26 E13       29.97F
BUTTE          CLOUDY    64  26  23 SW5       30.05F
BOZEMAN        SUNNY     70  40  33 N7        30.02F

WESTERN MONTANA


CITY           SKY/WX    TMP DP  RH WIND       PRES   REMARKS
MISSOULA       PTSUNNY   68  41  37 W3        30.00F
KALISPELL      NOT AVBL

NORTH DAKOTA


CITY           SKY/WX    TMP DP  RH WIND       PRES   REMARKS
WILLISTON      SUNNY     77  35  21 W13       29.96S
DICKINSON      MOSUNNY   72  34  24 W12       29.96F
MINOT          MOSUNNY   77  38  24 W16       29.95F
BISMARCK       MOSUNNY   79  45  29 MISG      29.98F

SOUTHERN SASKATCHEWAN


CITY           SKY/WX    TMP DP  RH WIND       PRES   REMARKS
REGINA         PTSUNNY   72  37  28 SW15G22   29.90S
MOOSE JAW      MOSUNNY   70  43  37 W15G21    29.91S
ESTEVAN        MOSUNNY   72  43  35 W15       29.94S
SWIFT CURRENT  MOSUNNY   68  41  37 W16G24    29.89F





USA.gov is the U.S. government's official web portal to all federal, state and local government web resources and services.